Location: Beckerzeel
(50.8863°N, 4.2361°E)
Time: 18:08:34
(UTC+00:00)

Daily predictions for brighter satellites

Satellite Brightness Start Highest point End
(mag) Time Altitude Azimuth Time Altitude Azimuth Time Altitude Azimuth
ASTEX 1 4.2 16:10:46 10° N 16:15:39 57° WNW 16:20:27 10° SSW
NOSS 2-2 (D) 3.5 16:13:12 10° SW 16:16:53 71° NW 16:21:16 10° NE
Envisat 4.0 16:12:57 10° ESE 16:16:58 24° ENE 16:21:01 10° N
Cosmos 1515 Rocket 4.1 16:12:49 10° SSW 16:17:06 60° WNW 16:21:25 10° N
Cosmos 1400 Rocket 2.9 16:13:20 10° S 16:17:27 88° E 16:21:33 10° NNE
Cosmos 1707 Rocket 4.4 16:14:42 10° SSE 16:18:40 32° E 16:22:40 10° NNE
Cosmos 1331 Rocket 4.2 16:13:27 10° NNW 16:18:44 83° WSW 16:24:00 10° SSE
Cosmos 2360 Rocket 2.2 16:14:11 10° SSW 16:19:50 80° ESE 16:25:33 10° NNE
NOAA 6 4.1 16:15:29 10° SSE 16:20:38 86° WSW 16:25:48 10° NNW
Cosmos 1689 Rocket 2.1 16:18:13 10° NNE 16:21:17 68° ESE 16:24:17 10° S
STARLINK-67 3.5 16:21:12 10° SW 16:23:48 37° SSE 16:26:25 10° E
Cosmos 2369 Rocket 4.0 16:22:19 10° N 16:24:19 12° NNE 16:26:19 10° NE
Cosmos 1980 Rocket 4.0 16:22:09 10° W 16:26:41 24° NW 16:31:13 10° NNE
Meteor 1-11 Rocket 4.3 16:24:07 10° N 16:29:45 41° ENE 16:35:20 10° SE
Cosmos 2333 Rocket 2.8 16:25:27 10° S 16:30:42 38° ESE 16:36:00 10° NE
SJ-7 4.4 16:30:15 10° SSE 16:34:27 85° ENE 16:38:38 10° NNW
COSMO-SKYMED 1 4.4 16:34:56 11° ENE 16:36:41 13° E 16:38:48 10° ESE
Shenzhou-11 Module 4.5 16:35:59 10° S 16:37:06 12° SSE 16:38:13 10° SE
RESURS DK-1 3.5 16:34:57 10° SSE 16:38:21 25° ESE 16:41:15 13° ENE
Radarsat Rocket 4.3 16:33:20 10° SSE 16:39:32 73° WSW 16:45:24 10° NNW
ATLAS 3B R/B 3.2 16:33:28 10° NW 16:40:05 64° SW 16:46:51 10° SSE
ISS -3.7 16:36:51 10° WNW 16:40:13 79° SSW 16:43:36 10° ESE
Cosmos 2237 Rocket 3.6 16:36:52 10° SE 16:40:45 19° E 16:43:56 12° ENE
USA 267 4.0 16:34:35 10° SE 16:41:02 58° SW 16:47:28 10° WNW
NOSS 3-4 (A) 3.5 16:36:08 10° SSW 16:42:06 70° SE 16:48:18 11° NE
NOSS 3-4 (C) 3.5 16:36:14 10° SSW 16:42:14 69° SE 16:48:24 11° NE
Cosmos 2322 Rocket 3.2 16:39:08 10° WSW 16:44:28 43° NW 16:49:52 10° NNE
CZ-4B R/B 3.0 16:41:56 10° N 16:45:12 36° WNW 16:48:26 10° SW
Cosmos 1812 3.8 16:43:09 10° SSE 16:46:24 26° E 16:49:28 11° NE
COBE Rocket 4.2 16:44:45 10° NNE 16:49:09 41° E 16:53:34 10° SSE
YAOGAN 1 3.9 16:46:27 10° ESE 16:49:32 19° ENE 16:52:36 10° NNE
Exosat Rocket 4.4 16:44:57 10° SSE 16:49:33 30° ESE 16:53:10 13° NE
SL-16 R/B 3.5 16:45:23 10° WSW 16:50:36 36° NW 16:55:51 10° NNE
NOSS 2-2 (C) 4.3 16:51:07 10° WSW 16:54:41 40° NNW 16:58:33 12° NE
Feng Yun 1-1 Rocket 4.1 16:49:21 10° SSE 16:54:44 81° ENE 17:00:10 10° NNW
NOAA 12 4.2 16:52:18 10° SE 16:57:29 57° ENE 17:02:40 10° N
Cosmos 2219 Rocket 2.3 16:52:02 10° S 16:57:31 58° ESE 17:02:43 12° NE
BREEZE-M R/B 3.3 16:52:21 10° WSW 16:58:46 70° S 17:01:16 18° E
Ariane Rocket 4.5 17:00:26 16° NE 17:00:26 16° NE 17:03:23 10° NNE
CORIOLIS 4.1 16:55:07 10° SSE 17:00:33 76° ENE 17:06:02 10° NNW
Cosmos 1844 Rocket 4.4 16:56:07 10° NW 17:01:11 36° WSW 17:06:14 10° S
Cosmos 1733 Rocket 3.0 16:57:00 10° N 17:01:21 66° ENE 17:05:43 10° SSE
Cosmos 494 Rocket 4.3 16:57:18 10° SSW 17:02:33 69° WNW 17:07:50 10° NNE
Cosmos 1536 3.2 16:59:41 10° N 17:03:30 39° ENE 17:07:16 10° SE
PSLV R/B 3.9 17:00:31 10° NNE 17:04:44 88° ESE 17:08:52 10° SSW
Cosmos 1500 3.1 17:03:07 10° N 17:06:54 63° ENE 17:10:37 10° SSE
SMAP 3.2 17:02:53 10° SSE 17:07:33 82° WSW 17:12:15 10° NNW
Cosmos 1269 Rocket 4.2 17:02:39 10° SSW 17:07:58 74° WNW 17:13:17 10° NNE
Cosmos 1340 4.3 17:04:53 10° NNW 17:08:24 37° W 17:11:53 10° SSW
Cosmos 1980 4.4 17:05:44 10° SSE 17:10:42 33° ESE 17:13:45 20° ENE
Cosmos 2297 4.4 17:05:38 10° NNW 17:10:50 34° NE 17:14:46 16° ESE
CZ-4 R/B 2.0 17:07:59 10° SE 17:11:28 31° ENE 17:14:54 10° N
Cosmos 1943 Rocket 3.5 17:11:11 10° NNW 17:15:13 19° NE 17:16:13 19° NE
H-2A R/B 2.9 17:12:09 10° S 17:15:51 71° WSW 17:19:32 10° NNW
ATLAS 2AS CENTAUR R/B 3.3 17:12:03 10° WSW 17:20:03 68° NW 17:26:44 16° NE
Lacrosse 5 rocket 2.2 17:16:26 10° SSW 17:20:20 35° SE 17:21:46 27° E
NOSS 7 (D) 4.0 17:20:01 10° NW 17:22:54 60° NE 17:23:57 35° ESE
COSMOS 2428 2.7 17:17:23 10° SSW 17:23:04 84° ESE 17:27:49 15° NNE
CSL-04 Rocket 3.9 17:18:13 10° SE 17:23:08 41° ENE 17:28:05 10° N
YAOGAN 6 2.7 17:20:27 10° SE 17:23:50 47° ENE 17:27:18 10° N
Meteor 1-5 Rocket 4.4 17:18:23 10° NNW 17:24:00 75° W 17:29:25 10° S
SKYMED 2 4.1 17:23:37 26° NE 17:25:18 36° E 17:29:18 10° SSE
Cosmos 1782 Rocket 4.2 17:24:44 10° N 17:28:40 32° ENE 17:28:57 31° ENE
Cosmos 292 Rocket 3.9 17:24:24 10° NNW 17:29:12 53° ENE 17:33:57 10° SE
SL-4 R/B 2.1 17:25:55 10° SW 17:29:38 58° SSE 17:31:03 35° E
SeaSat 1 3.5 17:31:15 25° NE 17:31:35 26° NE 17:35:36 10° NNW
Okean O Rocket 4.5 17:28:33 10° SW 17:31:41 19° W 17:34:50 10° NW
Cosmos 2251 Rocket 3.5 17:27:41 10° S 17:32:54 60° ESE 17:36:13 22° NE
Cosmos 1092 Rocket 4.1 17:27:27 10° SSE 17:33:30 50° E 17:39:31 10° NNE
NOSS 0 Rocket 4.0 17:27:36 10° S 17:33:39 56° ESE 17:37:29 23° NE
CSL-04 Debris 4.3 17:30:06 10° SE 17:35:23 52° ENE 17:40:39 10° N
ATLAS 5 CENTAUR R/B 2.6 17:34:49 10° SSW 17:35:55 20° S 17:35:55 20° S
Cosmos 921 Rocket 3.7 17:33:00 10° N 17:36:26 33° NE 17:36:26 33° NE
Cosmos 2242 Rocket 3.7 17:32:50 10° S 17:37:18 57° E 17:40:14 21° NNE
CZ-4 R/B 4.4 17:33:57 10° SSE 17:38:04 64° ENE 17:42:13 10° N
FengYun 1-2 T 4.1 17:34:05 10° SSE 17:39:33 78° ENE 17:45:04 10° NNW
Cosmos 1862 Rocket 3.5 17:35:52 10° S 17:40:12 89° W 17:44:16 12° N
COSMOS 2455 4.3 17:35:15 10° W 17:40:26 29° NNW 17:44:47 14° NNE
Cosmos 1703 Rocket 4.0 17:38:39 10° SSE 17:42:45 39° E 17:42:45 39° E
Okean-O 3.1 17:39:30 10° S 17:43:54 63° WSW 17:48:20 10° NNW
Genesis I 3.5 17:41:16 10° NNW 17:45:01 45° NE 17:45:01 45° NE
USA 215 3.4 17:44:09 27° NE 17:47:53 64° NNW 17:54:20 10° W
Cosmos 1666 2.5 17:47:53 10° N 17:51:40 84° ENE 17:55:24 10° SSE
Cosmos 2344 4.5 17:45:49 10° NW 17:54:04 47° NNE 17:59:09 30° ENE
NOAA 11 4.2 17:49:27 10° SE 17:54:46 56° ENE 18:00:08 10° N
Cosmos 2278 Rocket 2.9 17:49:23 10° NW 17:54:54 54° WSW 18:00:23 10° S
Envisat 3.5 17:50:37 10° S 17:55:38 61° WSW 18:00:42 10° NNW
STARLINK-67 3.9 17:55:20 10° W 17:57:16 38° WNW 17:57:16 38° WNW
Cosmos 1867 3.9 17:54:33 10° NW 17:59:49 44° NE 18:00:19 43° NE
S3M 4.4 17:54:46 10° N 18:00:12 38° ENE 18:00:12 38° ENE
BREEZE-M DEB (TANK) 3.0 18:00:10 10° WSW 18:04:03 37° S 18:04:17 36° S
Cosmos 2360 Rocket 3.9 17:59:46 10° W 18:04:30 26° NW 18:08:44 12° NNE
Cosmos 2369 Rocket 3.2 18:05:20 10° NNW 18:09:07 28° NNE 18:09:07 28° NNE
SL-16 R/B 3.2 18:06:22 10° S 18:09:56 30° SE 18:09:56 30° SE
Cosmos 1908 Rocket 4.0 18:08:04 10° NNW 18:12:27 60° W 18:16:45 10° S
COSMO-SKYMED 1 2.6 18:12:09 46° N 18:13:26 81° WNW 18:17:46 10° SSW
Nadezhda 4 Rocket 4.5 18:07:54 10° SSW 18:14:09 62° WNW 18:20:26 10° N
Cosmos 2333 Rocket 3.1 18:09:23 10° SW 18:14:55 46° NW 18:18:31 21° NNE
Cosmos 1553 Rocket 4.0 18:09:20 10° N 18:15:38 61° ENE 18:21:58 10° SSE
RESURS DK-1 3.3 18:12:15 10° SW 18:16:11 43° NW 18:17:10 36° NNW
ISS -1.8 18:13:52 10° W 18:16:39 24° SW 18:17:00 24° SSW
Cosmos 1428 Rocket 4.3 18:14:17 10° S 18:20:23 68° E 18:23:49 28° NNE
NOSS 3-1 (C) 4.3 18:15:05 10° NW 18:21:45 44° NNE 18:22:54 42° NE
Meteor 1-27 Rocket 4.5 18:16:33 10° SSW 18:22:09 53° WNW 18:27:55 10° N
Cosmos 2237 Rocket 2.2 18:18:24 10° SSW 18:24:07 84° WNW 18:25:49 48° NNE
YAOGAN 1 3.0 18:20:57 10° S 18:25:14 61° W 18:29:33 10° NNW
USA 116 4.4 18:24:32 46° NNE 18:26:12 87° ESE 18:31:27 10° SSW
BREEZE-M DEB (TANK) 4.1 18:24:18 10° W 18:27:20 21° SW 18:27:30 21° SW
USA 229 DEB 4.1 18:22:03 10° NW 18:28:51 46° NNE 18:29:29 45° NE
USA 229 4.1 18:22:09 10° NW 18:28:56 46° NNE 18:29:34 45° NE
Cosmos 2322 Rocket 4.5 18:27:03 10° WNW 18:30:07 15° NNW 18:32:56 11° N
NOSS 3-4 (A) 4.4 18:27:39 10° W 18:33:27 41° NNW 18:35:44 31° NNE
NOSS 3-4 (C) 4.4 18:27:46 10° W 18:33:33 41° NNW 18:35:50 31° NNE
NOSS 3-1 (A) 4.4 18:27:27 10° NW 18:33:57 40° NNE 18:34:26 40° NE
Cosmos 2026 Rocket 3.9 18:30:41 10° S 18:36:45 84° W 18:40:53 22° N
Cosmos 489 Rocket 4.3 18:32:09 10° NNW 18:38:32 73° ENE 18:38:49 72° E
Ariane Rocket 3.9 18:40:38 38° N 18:40:38 38° N 18:43:43 10° NNW
Cosmos 2219 Rocket 3.6 18:36:45 10° WSW 18:41:48 33° NW 18:44:27 22° N
Okean 1-7 4.2 18:39:33 10° SSW 18:42:13 36° SSW 18:42:13 36° SSW
Cosmos 1417 Rocket 4.3 18:40:14 10° N 18:46:25 89° W 18:48:46 41° S
CZ-4 R/B 3.3 18:43:08 10° SSW 18:46:31 27° W 18:49:52 10° NW
Cosmos 1980 4.3 18:49:06 10° SW 18:54:36 51° NW 18:55:38 46° NNW
Cosmos 2297 4.2 18:49:43 10° NW 18:55:20 57° WSW 18:56:48 44° SSW
Lacrosse 5 rocket 3.2 18:55:15 10° WSW 18:57:26 28° W 18:57:26 28° W
Cosmos 1943 Rocket 3.2 18:54:24 10° NNW 18:57:45 36° NNW 18:57:45 36° NNW
COSMOS 2428 4.5 19:03:22 10° W 19:08:02 25° NW 19:09:50 22° NNW
SeaSat 1 3.9 19:11:02 32° NW 19:11:02 32° NW 19:13:40 10° NNW
SL-4 R/B 4.4 19:05:17 10° W 19:06:39 21° W 19:06:39 21° W
ATLAS 2AS CENTAUR R/B 4.0 19:05:10 10° W 19:12:27 36° NNW 19:14:11 32° N
USA 215 3.9 19:31:30 48° NNW 19:31:30 48° NNW 19:36:47 10° WNW
Cosmos 2369 Rocket 4.3 19:49:11 10° NW 19:50:56 21° NW 19:50:56 21° NW
SL-16 R/B 4.3 19:49:58 10° SW 19:51:52 21° WSW 19:51:52 21° WSW
Cosmos 2237 Rocket 4.4 20:04:38 10° W 20:07:40 21° WNW 20:07:40 21° WNW
Cosmos 2344 4.3 20:00:20 10° NW 20:09:10 81° W 20:09:10 81° W
